• Join FlightAware (Why Join?)
  • Login
  • US Flag GB Flag 
02:11 EST


 

Airport Tracker/Info


-or-


 

Live Flight TrackerFlight Track Log ✈ JBU1329 ✈ 26-May-2013 ✈ KBOS - KBWI

Flight Track Log - Related Links

Times and Time Zones

All times are in EDT time to prevent confusion due to time zone crossing. See the JBU1329 flight status page for this flight to view local times or setup timezone preferences in your user account.

Time Position Orientation Groundspeed Altitude Reporting Facility
EDT Latitude Longitude Course Direction KTS MPH feet Rate Location/Type
09:16 42.3500 -71.0167 262° West 146 168 1,200  Level KA90
09:18 42.3499 -70.7266 172° South  Level FlightAware Approximate
09:18 42.2658 -71.1525 230° Southwest 232 267 5,300  Level Boston Center
09:19 42.2612 -70.7749 228° Southwest  Level FlightAware Approximate
09:19 42.2378 -71.2400 247° West 263 303 7,900  Level Boston Center
09:20 42.1999 -70.8948 240° Southwest  Level FlightAware Approximate
09:20 42.2158 -71.3497 255° West 276 318 10,900  Level Boston Center
09:21 42.1766 -71.0345 262° West  Level FlightAware Approximate
09:21 42.1939 -71.4564 255° West 308 354 12,800  Level Boston Center
09:22 42.1700 -71.5914 257° West 338 389 16,100 3,000 Climbing Boston Center
09:23 42.1397 -71.7178 252° West 349 402 18,900 2,400 Climbing Boston Center
09:24 42.0861 -71.8442 240° Southwest 370 426 20,900 2,040 Climbing Boston Center
09:25 42.0283 -71.9678 238° Southwest 387 445 23,000 1,980 Climbing Boston Center
09:26 41.9725 -72.0939 239° Southwest 392 451 24,900 1,800 Climbing Boston Center
09:27 41.9125 -72.2281 239° Southwest 408 470 26,600 1,740 Climbing Boston Center
09:28 41.8522 -72.3592 238° Southwest 416 479 28,400 1,740 Climbing Boston Center
09:29 41.7919 -72.4903 238° Southwest 416 479 30,100 1,560 Climbing Boston Center
09:30 41.7314 -72.6236 239° Southwest 416 479 31,600 900 Climbing Boston Center
09:31 41.6664 -72.7569 237° Southwest 421 484 32,000 180 Climbing Boston Center
09:32 41.6033 -72.8953 239° Southwest 428 493 32,000  Level Boston Center
09:33 41.5403 -73.0336 239° Southwest 433 498 32,000  Level Boston Center
09:34 41.4789 -73.1689 239° Southwest 433 498 32,000  Level Boston Center
09:35 41.4133 -73.3036 237° Southwest 433 498 32,000  Level Boston Center
09:36 41.3150 -73.5169 239° Southwest 426 490 32,000  Level New York Center
09:37 41.2453 -73.6464 234° Southwest 426 490 32,000  Level New York Center
09:38 41.1692 -73.7756 232° Southwest 439 505 32,000  Level New York Center
09:39 41.0931 -73.9014 231° Southwest 445 512 32,000  Level New York Center
09:40 41.0189 -74.0272 232° Southwest 451 519 32,000  Level New York Center
09:41 40.9425 -74.1528 231° Southwest 451 519 32,000  Level New York Center
09:42 40.8572 -74.2883 230° Southwest 451 519 32,000  Level New York Center
09:43 40.7825 -74.4106 231° Southwest 451 519 32,000 -900 Level New York Center
09:44 40.7100 -74.5381 233° Southwest 446 513 30,300 -1,800 Descending New York Center
09:45 40.6353 -74.6542 230° Southwest 438 504 28,400 -1,800 Descending New York Center
09:46 40.5625 -74.7731 231° Southwest 433 498 26,700 -1,680 Descending New York Center
09:47 40.4858 -74.8806 227° Southwest 422 486 25,100 -1,620 Descending New York Center
09:48 40.4114 -74.9850 227° Southwest 405 466 23,500 -1,620 Descending New York Center
09:49 40.3367 -75.0894 227° Southwest 400 460 21,900 -1,620 Descending New York Center
09:50 40.2642 -75.1936 228° Southwest 400 460 20,300 -1,560 Descending New York Center
09:51 40.1917 -75.2922 226° Southwest 395 455 18,800 -1,200 Descending New York Center
09:52 40.1297 -75.3806 227° Southwest 381 438 18,000 -420 Descending New York Center
09:53 40.0525 -75.4867 226° Southwest 371 427 18,000  Level New York Center
09:54 39.9886 -75.5719 226° Southwest 371 427 18,000  Level New York Center
09:55 39.9133 -75.6775 227° Southwest 371 427 18,000  Level New York Center
09:56 39.8633 -75.7769 237° Southwest 371 427 18,000 -1,140 Level New York Center
09:58 39.7500 -75.9833 235° Southwest 344 396 14,900 -1,920 Descending Potomac TRACON
09:59 39.7000 -76.0833 237° Southwest 339 390 12,500 -2,100 Descending Potomac TRACON
10:00 39.6333 -76.1833 229° Southwest 327 376 10,600 -1,440 Descending Potomac TRACON
10:01 39.5667 -76.2500 218° Southwest 290 334 9,600 -1,380 Descending Potomac TRACON
10:02 39.5167 -76.3167 226° Southwest 281 323 7,900 -1,800 Descending Potomac TRACON
10:03 39.4500 -76.3667 210° Southwest 281 323 6,200 -1,740 Descending Potomac TRACON
10:04 39.3833 -76.4000 201° Southwest 293 337 4,700 -960 Descending Potomac TRACON
10:05 39.3333 -76.4333 207° Southwest 237 273 4,400 -600 Descending Potomac TRACON
10:06 39.2667 -76.4667 201° Southwest 227 261 3,600 -840 Descending Potomac TRACON
10:07 39.2167 -76.5167 218° Southwest 223 257 2,800 -840 Descending Potomac TRACON
10:08 39.1667 -76.5500 207° Southwest 214 246 2,000 -900 Descending Potomac TRACON